Regional Weather Roundup
Issued by NWS

Home | Current Version | Previous Version | Text Only | Print | Product List | Glossary Off
Versions: 1 2 3 4 5 6 7 8 9 10 11 12 13 14 15 16 17 18 19 20 21 22 23 24 25 26 27 28 29 30 31 32 33 34 35 36 37 38 39 40 41 42 43 44 45 46 47 48 49 50

000
ASUS43 KTOP 300008
RWRKS

WEATHER ROUNDUP FOR KANSAS
NATIONAL WEATHER SERVICE GOODLAND KS
700 PM CDT MON JUN 29 2015

NOTE:  "FAIR" INDICATES FEW OR NO CLOUDS BELOW 12,000 FEET WITH NO
SIGNIFICANT WEATHER AND/OR OBSTRUCTIONS TO VISIBILITY.

KSZ001>006-013>018-027>032-041>047-300100-
NORTHWEST KANSAS

CITY           SKY/WX    TMP DP  RH WIND       PRES   REMARKS
GOODLAND       LGT RAIN  85  55  35 S14       30.09R
6HR MIN TEMP:  82; 6HR MAX TEMP:  90; 6HR PCP: TRACE;

HAYS           SUNNY     93  50  22 N9        29.96F
HILL CITY      SUNNY     96  51  21 NE9       29.97F
6HR MIN TEMP:  92; 6HR MAX TEMP:  98;

RUSSELL        SUNNY     95  49  20 N9        29.94F
6HR MIN TEMP:  88; 6HR MAX TEMP:  96;

$$

KSZ061>065-074>080-084>089-300100-
SOUTHWEST KANSAS

CITY           SKY/WX    TMP DP  RH WIND       PRES   REMARKS
DODGE CITY     MOSUNNY   88  53  30 NW15G21   30.02S
6HR MIN TEMP:  85; 6HR MAX TEMP:  93;

ELKHART          N/A     89  54  30 SE7         N/A
GARDEN CITY    CLOUDY    81  61  50 N3        30.04F
6HR MIN TEMP:  77; 6HR MAX TEMP:  89;

GREAT BEND     SUNNY     91  54  27 E7        29.95F
LIBERAL        PTSUNNY   88  55  33 W5        30.07S
PRATT          SUNNY    N/A N/A N/A N6        29.98F
$$

KSZ066>073-081>083-090>101-300100-
SOUTHEAST KANSAS

CITY           SKY/WX    TMP DP  RH WIND       PRES   REMARKS
CHANUTE        SUNNY     86  62  44 N5        29.92F
6HR MIN TEMP:  85; 6HR MAX TEMP:  89;

COFFEYVILLE    SUNNY     88  60  38 N5        29.91F
6HR MIN TEMP:  88; 6HR MAX TEMP:  90;

HUTCHINSON     SUNNY     90  59  35 N7        29.94F
6HR MIN TEMP:  85; 6HR MAX TEMP:  93;

MEDICINE LODGE   N/A     94  53  25 N9        29.93F
NEWTON         SUNNY     84  55  37 NE6       29.98F
PARSONS        MOSUNNY   87  64  46 N5        29.93F
6HR MIN TEMP:  85; 6HR MAX TEMP:  89;

WICHITA INTL   PTSUNNY   89  55  31 N7        29.93F
6HR MIN TEMP:  86; 6HR MAX TEMP:  92;

WICHITA JABRA  SUNNY     85  58  39 NE6       29.94F
6HR MIN TEMP:  85; 6HR MAX TEMP:  89;

WICHITA MCCONL SUNNY     88  56  33 E6        29.94F
WINFIELD       SUNNY     87  57  35 NE7       29.94F
6HR MIN TEMP:  87; 6HR MAX TEMP:  90;

$$

KSZ007>012-019>026-033>040-048>060-102>105-300100-
NORTHEAST KANSAS

CITY           SKY/WX    TMP DP  RH WIND       PRES   REMARKS
CONCORDIA      SUNNY     86  60  41 NE6       29.94F
6HR MIN TEMP:  83; 6HR MAX TEMP:  88;

EMPORIA        SUNNY     84  60  44 CALM      29.93F
6HR MIN TEMP:  84; 6HR MAX TEMP:  88;

LAWRENCE       SUNNY     84  64  50 NW7       29.90F
6HR MIN TEMP:  84; 6HR MAX TEMP:  87;

MANHATTAN      SUNNY     88  60  38 W5        29.91F
6HR MIN TEMP:  87; 6HR MAX TEMP:  91;

MARYSVILLE     SUNNY     84  61  45 NW5       29.92F
OLATHE IND     SUNNY     83  63  50 NW9       29.92S
6HR MIN TEMP:  83; 6HR MAX TEMP:  86;

OLATHE EXE     PTSUNNY   83  61  47 W7        29.90F
6HR MIN TEMP:  82; 6HR MAX TEMP:  86;

SALINA         SUNNY     91  56  30 NW12      29.93F
6HR MIN TEMP:  87; 6HR MAX TEMP:  93;

TOPEKA BILLARD SUNNY     85  63  47 NW6       29.91S
6HR MIN TEMP:  85; 6HR MAX TEMP:  88;

TOPEKA FORBES  SUNNY     86  61  42 W7        29.92S
6HR MIN TEMP:  85; 6HR MAX TEMP:  88;

$$



USA.gov is the U.S. government's official web portal to all federal, state and local government web resources and services.